Regional Weather Roundup
Issued by NWS

Home | Current Version | Previous Version | Text Only | Print | Product List | Glossary Off
Versions: 1 2 3 4 5 6 7 8 9 10 11 12 13 14 15 16 17 18 19 20 21 22 23 24 25 26 27 28 29 30 31 32 33 34 35 36 37 38 39 40 41 42 43 44 45 46 47 48 49 50

000
ASUS43 KBIS 202210
RWRND

NORTH DAKOTA REGIONAL WEATHER ROUNDUP
NATIONAL WEATHER SERVICE BISMARCK ND
500 PM CDT WED AUG 20 2014

NOTE: "FAIR" INDICATES FEW OR NO CLOUDS BELOW 12,000 FEET WITH NO
SIGNIFICANT WEATHER AND/OR OBSTRUCTIONS TO VISIBILITY.


NDZ001>003-009>011-017-202300-
NORTHWEST NORTH DAKOTA

CITY           SKY/WX    TMP DP  RH WIND       PRES   REMARKS
WILLISTON      LGT RAIN  69  65  86 SW7       29.76R
MINOT          LGT RAIN  76  64  66 S8        29.73R
MINOT AFB      PTSUNNY   78  64  63 S14       29.71R
$$

NDZ018>021-031>035-040>046-202300-
SOUTHWEST NORTH DAKOTA

CITY           SKY/WX    TMP DP  RH WIND       PRES   REMARKS
BISMARCK       CLOUDY    75  71  87 E5        29.71F
DICKINSON      LGT RAIN  67  62  84 NE9       29.76R
GARRISON         N/A     77  67  71 CALM      29.73S
HETTINGER ARPT PTSUNNY   72  66  81 NW5       29.72R
$$

NDZ004>008-012>016-024-026-027-054-202300-
NORTHEAST NORTH DAKOTA

CITY           SKY/WX    TMP DP  RH WIND       PRES   REMARKS
GRAND FORKS    MOSUNNY   83  67  58 S13G20    29.76F
GRND FRKS AFB  MOSUNNY   83  68  61 SE12      29.78S
DEVILS LAKE    CLOUDY    82  66  57 SE14      29.75R
$$

NDZ022-023-025-028>030-036>039-047>053-202300-
SOUTHEAST NORTH DAKOTA

CITY           SKY/WX    TMP DP  RH WIND       PRES   REMARKS
FARGO          PTSUNNY   83  66  56 SE10      29.77F
JAMESTOWN      PTSUNNY   80  67  64 SE10      29.75S
$$



USA.gov is the U.S. government's official web portal to all federal, state and local government web resources and services.